{"data":{"norad_id":53446,"epoch":"2026-05-25T05:05:40.902144Z","epoch_age_seconds":46804,"freshness":"FRESH","line1":"1 53446U 22098C   26145.21227896  .00063803  00000+0  67514-3 0  9993","line2":"2 53446  97.5597 273.8911 0003105 127.5492 232.6049 15.63955101211057","mean_motion":15.63955101,"eccentricity":0.0003105,"inclination_deg":97.5597,"raan_deg":273.8911,"arg_perigee_deg":127.5492,"mean_anomaly_deg":232.6049,"bstar":0.00067514,"rev_number":21105,"period_min":92.074254502527,"perigee_km":374.14831094001,"apogee_km":378.34278250153,"semimajor_km":6754.3825467208,"source":"CELESTRAK","updated_at":"2026-05-25T13:37:58.191594Z"}}